Tracking 29528 objects as of 14-Sep-2024
HD Live streaming from Space Station
objects crossing your sky now

FENGYUN 1C DEB

Track FENGYUN 1C DEB now!
10-day predictions


NORAD ID: 37917
Int'l Code: 1999-025ENS
Perigee: 829.2 km
Apogee: 897.9 km
Inclination: 98.9 °
Period: 102.1 minutes
Semi major axis: 7234 km
RCS: 0.0019 m2 (small)
Launch date: May 10, 1999
Source: People's Republic of China (PRC)
Launch site: Taiyaun Space Center, China (TSC)

Note: This is SATELLITE DEBRIS
Your satellite tracking list
Your tracking list is empty




NASA's NSSDC Master Catalog

Two Line Element Set (TLE):
1 37917U 99025ENS 24256.02962848  .00006314  00000-0  35081-2 0  9993
2 37917  98.9279 349.7299 0047438 260.0416  99.5398 14.10861287573759
Source of the keplerian elements: AFSPC